Home   Weather   Warendorf   Past weeks

Flag for Germany Past Weather in Warendorf, North Rhine-Westphalia, Germany — Yesterday and Last 2 Weeks

Now
59 °F

Passing clouds.


Feels Like: 58 °F
Forecast: 60 / 72 °F
Wind: 7 mph from Southwest

Location: Muenster / Osnabrueck

Current Time: Sep 28, 2016 at 3:57:47 AM

Latest Report: Sep 28, 2016 at 3:20 AM


Visibility: N/A

Pressure: 30.24 "Hg

Humidity: 68%

Dew Point: 48 °F

Location of WarendorfLocation

Past Weather in Warendorf — Graph

°F

Warendorf Temperature Yesterday

Maximum temperature yesterday: 72 °F (at 2:20 PM)
Minimum temperature yesterday: 45 °F (at 6:20 AM)
Average temperature yesterday: 57 °F

High & Low Weather Summary for the Past Weeks

 TemperatureHumidityPressure
High91 °F (Sep 13, 3:50 PM)100% (Sep 16, 7:50 AM)30.30 "Hg (Sep 16, 7:50 AM)
Low43 °F (Sep 21, 5:20 AM)28% (Sep 13, 4:50 PM)29.83 "Hg (Sep 15, 3:20 PM)
Average63 °F68%30.07 "Hg
* Reported Sep 13 2:20 AM — Sep 28 2:20 AM, Warendorf, Weather by CustomWeather, © 2016

Note: Actual official high and low records may vary slightly from our data, if they occured in-between our weather recording intervals... More about our weather records

Advertising

Warendorf Weather History for the Previous 24 Hours

Scroll right to see more
 ConditionsComfort  
Time TempWeatherWind HumidityBarometerVisibility
2:20 AM
Wed, Sep 28
55 °FClear.7 mph77%30.24 "Hg10 mi
1:50 AM55 °FClear.5 mph77%30.24 "Hg10 mi
1:20 AM55 °FClear.6 mph77%30.24 "Hg10 mi
12:50 AM55 °FClear.5 mph77%30.27 "Hg10 mi
12:20 AM55 °FClear.5 mph77%30.27 "Hg10 mi
11:50 PM
Tue, Sep 27
55 °FClear.5 mph82%30.27 "Hg10 mi
11:20 PM54 °FClear.5 mph82%30.27 "Hg10 mi
10:50 PM54 °FClear.5 mph82%30.27 "Hg10 mi
10:20 PM54 °FClear.2 mph82%30.27 "Hg10 mi
9:50 PM54 °FClear.No wind82%30.27 "Hg10 mi
9:20 PM54 °FClear.1 mph82%30.27 "Hg10 mi
8:50 PM55 °FClear.1 mph77%30.27 "Hg10 mi
8:20 PM55 °FClear.3 mph77%30.27 "Hg10 mi
7:50 PM57 °FClear.3 mph72%30.27 "Hg10 mi
7:20 PM63 °FClear.No wind64%30.27 "Hg10 mi
6:50 PM68 °FPassing clouds.5 mph46%30.27 "HgN/A
6:20 PM70 °FPassing clouds.6 mph43%30.27 "HgN/A
5:50 PM72 °FPassing clouds.8 mph38%30.27 "HgN/A
5:20 PM72 °FPassing clouds.9 mph38%30.27 "HgN/A
4:50 PM72 °FPassing clouds.7 mph41%30.27 "HgN/A
4:20 PM72 °FPassing clouds.7 mph38%30.27 "HgN/A
3:50 PM72 °FPassing clouds.8 mph38%30.27 "HgN/A
3:20 PM70 °FPassing clouds.7 mph43%30.27 "HgN/A
2:50 PM72 °FScattered clouds.7 mph44%30.27 "HgN/A
2:20 PM72 °FScattered clouds.5 mph44%30.27 "HgN/A
1:50 PM70 °FScattered clouds.6 mph50%30.30 "HgN/A
1:20 PM70 °FScattered clouds.5 mph50%30.30 "HgN/A
12:50 PM68 °FScattered clouds.5 mph56%30.30 "HgN/A
12:20 PM66 °FPassing clouds.3 mph64%30.30 "HgN/A
11:50 AM66 °FPassing clouds.3 mph64%30.30 "HgN/A
11:20 AM63 °FSunny.2 mph68%30.30 "Hg10 mi
10:50 AM61 °FPassing clouds.5 mph77%30.30 "HgN/A
10:20 AM59 °FSunny.2 mph77%30.30 "Hg10 mi
9:50 AM57 °FSunny.No wind77%30.30 "Hg10 mi
9:20 AM52 °FSunny.No wind88%30.30 "Hg10 mi
8:50 AM48 °FSunny.No wind94%30.30 "Hg10 mi
8:20 AM45 °FFog.1 mph100%30.30 "HgN/A
7:50 AM45 °FLight fog.No wind93%30.27 "HgN/A
7:20 AM45 °FLight fog.No wind93%30.27 "HgN/A
6:50 AM45 °FLight fog.No wind100%30.27 "HgN/A
6:20 AM45 °FFog.1 mph100%30.27 "HgN/A
5:50 AM46 °FFog.No wind93%30.24 "HgN/A
5:20 AM46 °FClear.1 mph100%30.27 "Hg10 mi
4:50 AM46 °FClear.2 mph93%30.24 "Hg10 mi
4:20 AM48 °FClear.2 mph87%30.24 "Hg10 mi
3:50 AM48 °FClear.No wind87%30.24 "Hg10 mi
3:20 AM48 °FClear.No wind94%30.24 "Hg10 mi
Weather by CustomWeather, © 2016

See weather overviewHow to use our weather pages